Погода в Березнике

Россия / Кировская область     58°03′19″N   50°36′20″E
темп.,
°C
ветер,
м/с
пор.,
м/с
влажн.,
%
обл.,
%
осадки,
мм/ч
давл.,
гПа
погр.,
м
27 января, ср
ср2700:00−5ю5994100 0.1 1022391
03:00−8ю51096100 0.1 1021292
06:00−6ю5995100 0.1 1021334
09:00−3ю61295100 0.3 1020520
12:00−1ю71292100 0.0 1019665
15:00−1ю71392100 0.1 1018703
18:00−2ююз81493100 0.0 1017742
21:00−3ю91495100 0.4 1016533
28 января, чт
чт2800:00−4ю81496100 1.3 1015535
03:00−4ююз71496100 3.8 1014560
06:00−3ююз71296100 1.3 1014535
09:00−3ююз71396100 2.3 1014503
12:00−2ююз61197100 0.9 1014475
15:00−3ю6997100 2.4 1015407
18:00−4ю61093100 0.7 1016386
21:00−6ю5995100 0.7 1015323
29 января, пт
пт2900:00−7ю5996100 0.0 1016292
03:00−10ююв4697100 0.0 1016132
06:00−10ююв489698 0.0 1015181
09:00−11юв489698 0.0 1015185
12:00−8юв5893100 0.0 1013282
15:00−7юв4994100 0.0 1012349
18:00−7юв51094100 0.0 1010362
21:00−7юв5995100 0.1 1009366
30 января, сб
сб3000:00−7юв4896100 0.3 1007341
03:00−8ююв4995100 0.8 1006327
06:00−7ююв51095100 0.3 1004338
09:00−6ююв61195100 1.1 1003456
12:00−4ю6995100 0.1 1002546
15:00−3ююв61194100 0.4 1001796
18:00−4ююв51196100 0.5 999480
21:00−2ююв7139699 2.2 999636
31 января, вс
вс3100:00−5юз7148999 0.2 1003518
03:00−9ююз5119590 0.3 1007287
06:00−11ю51097100 0.0 1008215
09:00−9ююв61194100 0.1 1006312
12:00−3ююв81696100 1.3 1003676
15:000ю111897100 4.3 10001114
18:00−1ю111896100 2.3 9991071
21:00−1ю101794100 3.7 998960